Weather History for KDTW - May, 2013

Change the Weather History Date:

Thursday, May 30, 2013

  Actual Average Record
Temperature  
Mean Temperature 77 °F 64 °F  
Max Temperature 88 °F 74 °F 93 °F (1942)
Min Temperature 66 °F 54 °F 36 °F (1966)
Degree Days  
Heating Degree Days 0 3  
Month to date heating degree days 137 205  
Since 1 July heating degree days 5906 6099  
Cooling Degree Days 12 3  
Month to date cooling degree days 92 38  
Year to date cooling degree days 92 44  
Growing Degree Days 27 (Base 50)    
Moisture  
Dew Point 66 °F    
Average Humidity 69    
Maximum Humidity 87    
Minimum Humidity 50    
Precipitation  
Precipitation 0.53 in 0.12 in 2.27 in (1889)
Month to date precipitation 2.08 3.27  
Year to date precipitation 14.39 12.43  
Snow  
Snow 0.00 in 0.00 in 0.00 in ()
Month to date snowfall 0.0 0.0  
Since 1 July snowfall 47.7 42.5  
Snow Depth 0.00 in    
Sea Level Pressure  
Sea Level Pressure 30.03 in    
Wind  
Wind Speed 8 mph (SSE)    
Max Wind Speed 28 mph    
Max Gust Speed 49 mph    
Visibility 8 miles    
Events Fog , Rain , Thunderstorm    
T = Trace of Precipitation, MM = Missing Value Source: NWS Daily Summary

Daily Weather History Graph

Daily Weather History Graph

Search for Another Location

Airport or City:

Trip Planner

Search our weather history database for the weather conditions in past years. The results will help you decide how hot, cold, wet, or windy it might be!

Date:

Astronomy

May. 30, 2013 Rise Set
Actual Time 6:00 AM EDT 9:01 PM EDT
Civil Twilight 5:26 AM EDT 9:35 PM EDT
Nautical Twilight 4:43 AM EDT 10:18 PM EDT
Astronomical Twilight 3:53 AM EDT 11:09 PM EDT
Moon 12:58 AM EDT 12:12 PM EDT
Length of Visible Light 16h 08m
Length of Day
15h 01m
Waning Gibbous, 62% of the Moon is Illuminated
May 30
Waning Gibbous
May 31
Last Quarter
Jun 8
New
Jun 16
First Quarter
Jun 23
Full

Hourly Weather History & Observations

Time (EDT) Temp. Heat Index Dew Point Humidity Pressure Visibility Wind Dir Wind Speed Gust Speed Precip Events Conditions
12:53 AM 70.0 °F - 64.9 °F 84% 30.01 in 9.0 mi South 3.5 mph - N/A   Scattered Clouds
1:53 AM 69.1 °F - 64.0 °F 84% 30.03 in 10.0 mi SE 4.6 mph - N/A   Scattered Clouds
2:53 AM 68.0 °F - 64.0 °F 87% 30.03 in 7.0 mi Calm Calm - N/A   Mostly Cloudy
3:53 AM 68.0 °F - 62.1 °F 81% 30.04 in 10.0 mi South 3.5 mph - N/A   Mostly Cloudy
4:53 AM 66.0 °F - 61.0 °F 84% 30.04 in 10.0 mi South 6.9 mph - N/A   Mostly Cloudy
5:53 AM 66.9 °F - 60.1 °F 79% 30.04 in 8.0 mi South 3.5 mph - N/A   Mostly Cloudy
6:53 AM 66.9 °F - 61.0 °F 81% 30.06 in 8.0 mi South 4.6 mph - N/A   Mostly Cloudy
7:53 AM 71.1 °F - 63.0 °F 75% 30.07 in 9.0 mi South 6.9 mph - N/A   Overcast
8:53 AM 75.9 °F - 64.0 °F 67% 30.07 in 10.0 mi South 12.7 mph - N/A   Mostly Cloudy
9:53 AM 79.0 °F - 66.0 °F 64% 30.07 in 10.0 mi SSW 12.7 mph - N/A   Mostly Cloudy
10:53 AM 82.0 °F 84.1 °F 66.0 °F 58% 30.06 in 10.0 mi South 12.7 mph - N/A   Mostly Cloudy
11:53 AM 84.0 °F 86.3 °F 66.0 °F 55% 30.06 in 10.0 mi South 13.8 mph - N/A   Mostly Cloudy
12:53 PM 87.1 °F 89.9 °F 66.9 °F 51% 30.05 in 10.0 mi South 18.4 mph 24.2 mph N/A   Mostly Cloudy
1:53 PM 88.0 °F 90.3 °F 66.0 °F 48% 30.02 in 10.0 mi South 16.1 mph 24.2 mph N/A   Mostly Cloudy
2:11 PM 84.2 °F 86.6 °F 66.2 °F 55% 30.06 in 1.0 mi SSW 31.1 mph 47.2 mph 0.00 in Rain Heavy Rain
2:17 PM 73.4 °F - 69.8 °F 88% 30.05 in 6.0 mi South 11.5 mph 47.2 mph 0.01 in Rain Light Rain
2:53 PM 80.1 °F 84.5 °F 73.9 °F 81% 30.03 in 10.0 mi East 8.1 mph - 0.13 in   Mostly Cloudy
3:53 PM 84.9 °F 90.1 °F 71.1 °F 63% 30.00 in 10.0 mi ESE 6.9 mph - N/A   Mostly Cloudy
4:35 PM 82.4 °F 86.3 °F 69.8 °F 66% 30.01 in 8.0 mi ESE 5.8 mph - 0.00 in Rain , Thunderstorm Thunderstorms and Rain
4:53 PM 77.0 °F - 66.9 °F 71% 30.00 in 10.0 mi WNW 4.6 mph - 0.02 in Rain , Thunderstorm Light Thunderstorms and Rain
5:53 PM 72.0 °F - 63.0 °F 73% 29.99 in 10.0 mi ENE 3.5 mph - 0.03 in Thunderstorm Thunderstorm
6:08 PM 73.4 °F - 64.4 °F 73% 29.99 in 10.0 mi Calm Calm - N/A   Mostly Cloudy
6:51 PM 73.4 °F - 64.4 °F 73% 30.04 in 0.5 mi South 9.2 mph - 0.00 in Rain Rain
6:53 PM 73.9 °F - 66.0 °F 76% 30.05 in 0.5 mi South 20.7 mph 36.8 mph 0.00 in Rain Rain
6:57 PM 71.6 °F - 68.0 °F 88% 30.01 in 0.2 mi SW 27.6 mph 49.5 mph 0.11 in Fog , Rain , Thunderstorm Thunderstorms and Rain
7:03 PM 75.2 °F - 66.2 °F 73% 30.01 in 3.0 mi WSW 6.9 mph 49.5 mph 0.33 in Rain , Thunderstorm Light Thunderstorms and Rain
7:19 PM 75.2 °F - 69.8 °F 83% 30.00 in 10.0 mi East 3.5 mph - 0.35 in   Mostly Cloudy
7:53 PM 75.0 °F - 71.1 °F 87% 30.00 in 10.0 mi SE 8.1 mph - 0.35 in   Mostly Cloudy
8:53 PM 73.9 °F - 68.0 °F 82% 29.99 in 10.0 mi ENE 5.8 mph - 0.00 in   Mostly Cloudy
9:53 PM 72.0 °F - 66.0 °F 81% 30.00 in 10.0 mi East 5.8 mph - N/A   Mostly Cloudy
10:53 PM 71.1 °F - 66.0 °F 84% 30.01 in 10.0 mi Calm Calm - N/A   Mostly Cloudy
11:02 PM 71.6 °F - 66.2 °F 83% 30.04 in 10.0 mi Calm Calm - N/A Thunderstorm Thunderstorm
11:29 PM 71.6 °F - 66.2 °F 83% 30.03 in 10.0 mi WNW 3.5 mph - N/A   Mostly Cloudy
11:53 PM 72.0 °F - 66.0 °F 81% 30.01 in 9.0 mi ESE 3.5 mph - N/A   Mostly Cloudy